AirNav   Pilot Hours Calculator
 
 1006 users online  

CA84 Torrey Pines Gliderport
San Diego, California, USA

GOING TO SAN DIEGO?


FAA INFORMATION EFFECTIVE 31 JANUARY 2019

Location

FAA Identifier: CA84
Lat/Long: 32-53-23.0000N / 117-14-49.0000W
32-53.383333N / 117-14.816667W
32.8897222 / -117.2469444
(estimated)
Elevation: 372 ft. / 113 m (estimated)
Variation: 13E (1985)
From city: 11 miles NW of SAN DIEGO, CA
Time zone: UTC -8 (UTC -7 during Daylight Saving Time)
Zip code: 92037

Gliderport Operations

Gliderport use: Private use. Permission required prior to landing
Activation date: 11/1961
Control tower: no
ARTCC: LOS ANGELES CENTER
FSS: SAN DIEGO FLIGHT SERVICE STATION
Attendance: UNATNDD
Wind indicator: no
Segmented circle: no

Gliderport Communications

WX ASOS at MYF (7 nm SE): 126.9 (858-576-4337)
WX ASOS at SAN (10 nm S): PHONE 619-296-8934
WX AWOS-3P at SEE (14 nm E): 125.45 (619-449-1228)
WX ASOS at CRQ (14 nm N): PHONE 760-930-0864
WX ASOS at RNM (19 nm NE): 132.025 (760-789-0736)

Nearby radio navigation aids

VOR radial/distance  VOR name  Freq  Var
MZBr335/6.5MISSION BAY VORTAC117.8015E
PGYr307/21.5POGGI VORTAC109.8014E
OCNr143/22.7OCEANSIDE VORTAC115.3015E
TIJr311/25.7TIJUANA VOR/DME116.5014E
JLIr231/36.5JULIAN VORTAC114.0015E

Gliderport Services

Airframe service: NONE
Powerplant service: NONE

Runway Information

Runway 9/27

Dimensions: 1500 x 30 ft. / 457 x 9 m
Surface: asphalt
RUNWAY 9  RUNWAY 27
Traffic pattern: leftleft
Obstructions: nonetrees, 100 ft. from runway

Gliderport Ownership and Management from official FAA records

Ownership: Publicly-owned
Owner: CITY OF SAN DIEGO
Manager: JIM FROST
4740 HARBINSON AVE
LA MESA, CA 91941
Phone 619-461-9614
WORK PHONE 619-535-9505 EXT 1585

Additional Remarks

GLIDER PORT IS LEASED FM CITY TO THE ASSOCD GLIDER CLUB OF SOUTHERN CALIF FOR STUDENT TRAINING & RIDGE SOARING.
ALL ACFT ARE TRAILERED GLIDERS.
ROLLING RWY .6 PERCENT GRADIENT.
EXTENSIVE HANG GLIDER OPERATIONS ON WEEKENDS AND WEEKDAYS.

Instrument Procedures

There are no published instrument procedures at CA84.

Some nearby airports with instrument procedures:

KNKX - Miramar MCAS (Joe Foss Field) Airport (5 nm E)
KMYF - Montgomery-Gibbs Executive Airport (7 nm SE)
KSAN - San Diego International Airport (10 nm S)
KNZY - North Island Naval Air Station (Halsey Field) (12 nm S)
KSEE - Gillespie Field Airport (14 nm E)
KCRQ - Mc Clellan-Palomar Airport (14 nm N)
KRNM - Ramona Airport (19 nm NE)
 
Loc | Ops | Rwys | IFR | FBO | Links
Com | Nav | Svcs | Stats | Notes
Area around CA84 (Torrey Pines Gliderport)
 
Road maps at: MapQuest Bing Google
 
Aerial photo
WARNING: Photo may not be current or correct
Aerial photo of CA84 (Torrey Pines Gliderport)
Photo by Doug Fronius
Photo taken 13-Mar-2004
from a 1942 Schweizer TG-2 sailplane.

Do you have a better or more recent aerial photo of Torrey Pines Gliderport that you would like to share? If so, please send us your photo.

 
Sectional chart

 
Airport distance calculator
Flying to Torrey Pines Gliderport? Find the distance to fly.

From to CA84

Sunrise and sunset
Times for 23-Feb-2019
 Local
(UTC-8)
 Zulu
(UTC)
Morning civil twilight06:0014:00
Sunrise06:2514:25
Sunset17:4001:40
Evening civil twilight18:0502:05

Current date and time
Zulu (UTC)  23-Feb-2019 16:02:12
Local (UTC-8)  23-Feb-2019 08:02:12
 
METAR
KNKX 
6nm E 
222155Z 24007KT 10SM FEW040 15/02 3002 RMK A02 SLP163 T01500017 $
KMYF 
7nm SE 
231553Z 00000KT 10SM CLR 08/00 A3030 RMK AO2 SLP261 T00830000
KSAN 
10nm S 
231551Z 00000KT 10SM CLR 09/M02 A3033 RMK AO2 SLP270 T00891017
KNZY 
11nm S 
231452Z 11004KT 10SM CLR 08/00 A3029 RMK AO2 SLP256 T00780000 53010 PNO $
KCRQ 
15nm N 
231553Z AUTO 07005KT 10SM CLR 09/00 A3029 RMK AO2 SLP258 T00940000
KSEE 
15nm E 
231547Z 00000KT 10SM SKC 03/01 A3031
KRNM 
19nm NE 
231553Z AUTO 00000KT 10SM CLR 02/M01 A3029 RMK AO2 SLP260 T00221006
TAF
KNKX 
6nm E 
2303/2403 VRB05KT 9999 SKC QNH3010INS T05/2313Z T17/2321Z
KSAN 
10nm S 
231120Z 2312/2418 VRB03KT P6SM SKC FM232000 29008KT P6SM SKC FM240100 VRB04KT P6SM SCT250
KNZY 
11nm S 
2307/2407 VRB06KT 9999 FEW200 QNH3011INS TEMPO 2310/2316 29009KT 8000 BR FEW200 BECMG 2321/2322 32008G18KT 9999 FEW150 QNH3015INS FM240300 VRB06KT 9999 SKC QNH3018INS AUTOMATED SENSOR METWATCH 2307 TIL 2315 T06/2315Z T17/2322Z FS30125
KCRQ 
15nm N 
231120Z 2312/2412 VRB05KT P6SM SKC FM232100 25008KT P6SM SKC FM240100 VRB04KT P6SM SKC
NOTAMs
Click for the latest NOTAMs
NOTAMs are issued by the DoD/FAA and will open in a separate window not controlled by AirNav.

 

 
 

Would you like to see your business listed on this page?

 If your business provides an interesting product or service to pilots, flight crews, aircraft, or users of the Torrey Pines Gliderport, you should consider listing it here.  To start the listing process, click on the button below
 
Add a business
 

Other Pages about Torrey Pines Gliderport

www.agcsc.org/torrey_pines_info.html
 
Update a link
 
Copyright © AirNav, LLC. All rights reserved. Privacy Policy  Contact